This is the latest recevied weather packets stored in our database for station/object W4ZHA. If no packets are shown the sender has not sent any weather packets the latest 10 day(s).
| Time | Temp. | Humidity | Pressure | Rain* | Wind** | Luminosity | Snow |
|---|---|---|---|---|---|---|---|
| 1777556414 | 16.11° C | 65% | 1014.4 hPa | 0 mm | - | 103 W/m² | - |
| 1777556109 | 16.11° C | 65% | 1014.4 hPa | 0 mm | - | 40 W/m² | - |
| 1777555804 | 16.11° C | 65% | 1014.4 hPa | 0 mm | - | 37 W/m² | - |
| 1777555500 | 15.56° C | 66% | 1014.1 hPa | 0 mm | - | 53 W/m² | - |
| 1777555196 | 15.56° C | 66% | 1014.1 hPa | 0 mm | - | 37 W/m² | - |
| 1777554894 | 15.56° C | 66% | 1014.1 hPa | 0 mm | - | 36 W/m² | - |
| 1777554591 | 15° C | 66% | 1014.1 hPa | 0 mm | - | 41 W/m² | - |
| 1777554287 | 15° C | 67% | 1014.1 hPa | 0 mm | - | 38 W/m² | - |
| 1777553985 | 15° C | 66% | 1014.1 hPa | 0 mm | - | 36 W/m² | - |
| 1777553681 | 15° C | 66% | 1013.8 hPa | 0 mm | - | 42 W/m² | - |
| 1777553378 | 14.44° C | 68% | 1013.8 hPa | 0 mm | - | 50 W/m² | - |
| 1777553074 | 14.44° C | 68% | 1014.1 hPa | 0 mm | - | 34 W/m² | - |
| 1777552769 | 14.44° C | 68% | 1013.8 hPa | 0 mm | - | 33 W/m² | - |
| 1777552465 | 14.44° C | 69% | 1013.8 hPa | 0 mm | - | 31 W/m² | - |
| 1777552161 | 14.44° C | 69% | 1013.8 hPa | 0 mm | - | 31 W/m² | - |
| 1777551858 | 13.89° C | 68% | 1013.4 hPa | 0 mm | - | 29 W/m² | - |
| 1777551556 | 13.89° C | 68% | 1013.4 hPa | 0 mm | - | 28 W/m² | - |
| 1777551253 | 13.89° C | 69% | 1013.8 hPa | 0 mm | - | 27 W/m² | - |
| 1777550949 | 13.89° C | 69% | 1013.8 hPa | 0 mm | - | 26 W/m² | - |
| 1777550647 | 13.89° C | 69% | 1013.8 hPa | 0 mm | - | 26 W/m² | - |
| 1777550342 | 13.89° C | 69% | 1013.8 hPa | 0 mm | - | 24 W/m² | - |
| 1777550038 | 13.89° C | 69% | 1013.4 hPa | 0 mm | - | 23 W/m² | - |
| 1777549736 | 13.89° C | 69% | 1013.8 hPa | 0 mm | - | 22 W/m² | - |
| 1777549435 | 13.89° C | 69% | 1013.4 hPa | 0 mm | - | 21 W/m² | - |
| 1777549133 | 13.89° C | 70% | 1013 hPa | 0 mm | - | 19 W/m² | - |
* Rain latest hour (hover to see other rain measurements)
** Current wind speed in m/s (hover to see current wind gust speed)